| time (UTC) | temp F | wind direction | speed MPH | gust MPH | rain 1hr in | rain 24hr in | rain mn in | humidity % | barometer mb |
| 20260904080649 | 48 | 134 | 0.0 | 0.0 | 0.00 | 0.00 | 0.00 | 83 | 1009.1 |
| 20260904075630 | 48 | 134 | 0.0 | 0.0 | 0.00 | 0.00 | 0.00 | 81 | 1009.2 |
| 20260904073501 | 49 | 134 | 0.0 | 0.0 | 0.00 | 0.00 | 0.00 | 79 | 1009.1 |
| 20260904072511 | 49 | 134 | 0.0 | 0.0 | 0.00 | 0.00 | 0.00 | 79 | 1009.0 |
| 20260904071459 | 50 | 143 | 0.0 | 0.0 | 0.00 | 0.00 | 0.00 | 79 | 1009.1 |
| 20260904070501 | 50 | 141 | 0.0 | 0.0 | 0.00 | 0.00 | 0.00 | 78 | 1009.0 |
| 20260904065432 | 51 | 141 | 0.0 | 0.0 | 0.00 | 0.00 | 0.00 | 74 | 1008.9 |
| 20260904063338 | 51 | 158 | 0.0 | 0.0 | 0.00 | 0.00 | 0.00 | 76 | 1008.7 |
| 20260904061230 | 52 | 136 | 0.0 | 0.0 | 0.00 | 0.00 | 0.00 | 74 | 1008.6 |
| 20260904060157 | 52 | 137 | 0.0 | 0.0 | 0.00 | 0.00 | 0.00 | 75 | 1008.5 |
| 20260904055158 | 52 | 137 | 0.0 | 0.0 | 0.00 | 0.00 | 0.00 | 72 | 1008.4 |
| 20260904053102 | 54 | 13 | 0.0 | 0.0 | 0.00 | 0.00 | 0.00 | 71 | 1008.4 |
| 20260904052127 | 54 | 143 | 0.0 | 0.0 | 0.00 | 0.00 | 0.00 | 68 | 1008.3 |
| 20260904051134 | 54 | 143 | 0.0 | 0.0 | 0.00 | 0.00 | 0.00 | 69 | 1008.1 |
| 20260904050155 | 55 | 44 | 0.0 | 0.0 | 0.00 | 0.00 | 0.00 | 66 | 1008.1 |
| 20260904045121 | 56 | 44 | 0.0 | 0.0 | 0.00 | 0.00 | 0.00 | 62 | 1008.0 |
| 20260904044128 | 57 | 50 | 0.0 | 0.0 | 0.00 | 0.00 | 0.00 | 61 | 1007.9 |
| 20260904043119 | 57 | 157 | 0.0 | 0.0 | 0.00 | 0.00 | 0.00 | 57 | 1008.0 |
| 20260904042109 | 58 | 157 | 0.0 | 1.0 | 0.00 | 0.00 | 0.00 | 61 | 1008.0 |
| 20260904041110 | 59 | 156 | 0.0 | 0.0 | 0.00 | 0.00 | 0.00 | 53 | 1007.9 |
| 20260904040039 | 58 | 87 | 0.0 | 0.0 | 0.00 | 0.00 | 0.00 | 58 | 1007.9 |
| 20260904035049 | 59 | 50 | 0.0 | 0.0 | 0.00 | 0.00 | 0.00 | 57 | 1007.9 |
| 20260904034109 | 59 | 115 | 0.0 | 0.0 | 0.00 | 0.00 | 0.00 | 56 | 1007.8 |
| 20260904033122 | 60 | 115 | 0.0 | 0.0 | 0.00 | 0.00 | 0.00 | 55 | 1007.6 |
| 20260904032057 | 60 | 153 | 0.0 | 0.0 | 0.00 | 0.00 | 0.00 | 55 | 1007.5 |
| 20260904031059 | 61 | 153 | 0.0 | 1.0 | 0.00 | 0.00 | 0.00 | 53 | 1007.5 |
| 20260904030117 | 63 | 158 | 0.0 | 0.0 | 0.00 | 0.00 | 0.00 | 52 | 1007.3 |
| 20260904025122 | 64 | 162 | 0.0 | 0.0 | 0.00 | 0.00 | 0.00 | 50 | 1007.2 |
| 20260904024128 | 66 | 163 | 0.0 | 0.0 | 0.00 | 0.00 | 0.00 | 46 | 1007.1 |
| 20260904023109 | 68 | 172 | 0.0 | 0.0 | 0.00 | 0.00 | 0.00 | 40 | 1006.9 |
| 20260904022121 | 70 | 243 | 0.0 | 0.0 | 0.00 | 0.00 | 0.00 | 34 | 1006.7 |
| 20260904021110 | 72 | 115 | 0.0 | 0.0 | 0.00 | 0.00 | 0.00 | 30 | 1006.4 |
| 20260904020110 | 74 | 309 | 0.0 | 0.0 | 0.00 | 0.00 | 0.00 | 29 | 1006.3 |
| 20260904014019 | 75 | 143 | 0.0 | 3.0 | 0.00 | 0.00 | 0.00 | 26 | 1006.0 |
| 20260904011840 | 78 | 240 | 0.0 | 3.0 | 0.00 | 0.00 | 0.00 | 26 | 1005.9 |
| 20260904010811 | 81 | 144 | 0.0 | 1.0 | 0.00 | 0.00 | 0.00 | 23 | 1005.9 |
| 20260904004643 | 82 | 227 | 1.0 | 11.0 | 0.00 | 0.00 | 0.00 | 21 | 1006.0 |
| 20260904003655 | 82 | 312 | 1.0 | 0.0 | 0.00 | 0.00 | 0.00 | 22 | 1006.0 |
| 20260904002637 | 83 | 112 | 1.0 | 9.0 | 0.00 | 0.00 | 0.00 | 21 | 1006.0 |
| 20260904001608 | 83 | 221 | 3.0 | 11.0 | 0.00 | 0.00 | 0.00 | 20 | 1006.1 |
| 20260903235427 | 83 | 135 | 2.0 | 11.0 | 0.00 | 0.00 | 0.00 | 20 | 1006.2 |
| 20260903234413 | 84 | 219 | 2.0 | 11.0 | 0.00 | 0.00 | 0.00 | 18 | 1006.4 |
| 20260903232306 | 84 | 271 | 1.0 | 0.0 | 0.00 | 0.00 | 0.00 | 19 | 1006.4 |
| 20260903231237 | 84 | 167 | 0.0 | 8.0 | 0.00 | 0.00 | 0.00 | 18 | 1006.4 |
| 20260903225046 | 84 | 119 | 1.0 | 10.0 | 0.00 | 0.00 | 0.00 | 20 | 1006.7 |
| 20260903224013 | 83 | 231 | 4.0 | 14.0 | 0.00 | 0.00 | 0.00 | 18 | 1006.9 |
| 20260903223020 | 83 | 127 | 5.0 | 15.0 | 0.00 | 0.00 | 0.00 | 17 | 1006.9 |
| 20260903222014 | 84 | 193 | 3.0 | 15.0 | 0.00 | 0.00 | 0.00 | 17 | 1007.1 |
| 20260903221036 | 84 | 103 | 1.0 | 13.0 | 0.00 | 0.00 | 0.00 | 19 | 1007.0 |
| 20260903220023 | 83 | 259 | 2.0 | 13.0 | 0.00 | 0.00 | 0.00 | 17 | 1007.1 |
| 20260903215031 | 83 | 129 | 3.0 | 11.0 | 0.00 | 0.00 | 0.00 | 20 | 1007.3 |
| 20260903214003 | 83 | 153 | 4.0 | 15.0 | 0.00 | 0.00 | 0.00 | 19 | 1007.5 |
| 20260903213012 | 83 | 256 | 4.0 | 18.0 | 0.00 | 0.00 | 0.00 | 19 | 1007.6 |
| 20260903211955 | 82 | 226 | 6.0 | 18.0 | 0.00 | 0.00 | 0.00 | 18 | 1007.8 |
| 20260903210923 | 83 | 155 | 5.0 | 17.0 | 0.00 | 0.00 | 0.00 | 19 | 1007.9 |
| 20260903205926 | 83 | 134 | 3.0 | 13.0 | 0.00 | 0.00 | 0.00 | 19 | 1007.9 |
| 20260903204855 | 82 | 188 | 3.0 | 19.0 | 0.00 | 0.00 | 0.00 | 19 | 1008.2 |
| 20260903202736 | 81 | 124 | 4.0 | 13.0 | 0.00 | 0.00 | 0.00 | 19 | 1008.3 |
| 20260903201719 | 81 | 126 | 3.0 | 15.0 | 0.00 | 0.00 | 0.00 | 22 | 1008.4 |
| 20260903200714 | 80 | 238 | 4.0 | 15.0 | 0.00 | 0.00 | 0.00 | 22 | 1008.6 |
| 20260903194627 | 80 | 160 | 4.0 | 13.0 | 0.00 | 0.00 | 0.00 | 24 | 1008.8 |
| 20260903193608 | 80 | 136 | 4.0 | 15.0 | 0.00 | 0.00 | 0.00 | 24 | 1008.9 |
| 20260903191505 | 79 | 229 | 4.0 | 17.0 | 0.00 | 0.00 | 0.00 | 26 | 1009.2 |
| 20260903190502 | 80 | 247 | 3.0 | 17.0 | 0.00 | 0.00 | 0.00 | 24 | 1009.5 |
| 20260903185459 | 80 | 166 | 2.0 | 13.0 | 0.00 | 0.00 | 0.00 | 28 | 1009.4 |
| 20260903184437 | 79 | 245 | 3.0 | 14.0 | 0.00 | 0.00 | 0.00 | 24 | 1009.7 |
| 20260903183426 | 78 | 223 | 3.0 | 18.0 | 0.00 | 0.00 | 0.00 | 26 | 1009.8 |
| 20260903182409 | 78 | 240 | 4.0 | 18.0 | 0.00 | 0.00 | 0.00 | 27 | 1009.9 |
| 20260903181340 | 77 | 212 | 4.0 | 18.0 | 0.00 | 0.00 | 0.00 | 29 | 1010.1 |
| 20260903175225 | 77 | 103 | 5.0 | 17.0 | 0.00 | 0.00 | 0.00 | 30 | 1010.4 |
| 20260903174203 | 76 | 153 | 4.0 | 13.0 | 0.00 | 0.00 | 0.00 | 30 | 1010.5 |
| 20260903173226 | 76 | 226 | 6.0 | 14.0 | 0.00 | 0.00 | 0.00 | 30 | 1010.7 |
| 20260903172156 | 76 | 116 | 5.0 | 22.0 | 0.00 | 0.00 | 0.00 | 30 | 1010.7 |
| 20260903171127 | 75 | 227 | 7.0 | 22.0 | 0.00 | 0.00 | 0.00 | 30 | 1010.6 |
| 20260903170141 | 75 | 224 | 6.0 | 17.0 | 0.00 | 0.00 | 0.00 | 31 | 1010.5 |
| 20260903165206 | 75 | 148 | 5.0 | 15.0 | 0.00 | 0.00 | 0.00 | 33 | 1010.6 |
| 20260903164144 | 74 | 203 | 0.0 | 5.0 | 0.00 | 0.00 | 0.00 | 44 | 1010.5 |
| 20260903163112 | 72 | 350 | 0.0 | 2.0 | 0.00 | 0.00 | 0.00 | 53 | 1010.6 |
| 20260903160946 | 67 | 8 | 0.0 | 2.0 | 0.00 | 0.00 | 0.00 | 58 | 1011.1 |
| 20260903160003 | 65 | 314 | 0.0 | 3.0 | 0.00 | 0.00 | 0.00 | 61 | 1011.1 |
| 20260903154956 | 63 | 0 | 0.0 | 3.0 | 0.00 | 0.00 | 0.00 | 63 | 1011.3 |
| 20260903153943 | 63 | 11 | 0.0 | 1.0 | 0.00 | 0.00 | 0.00 | 66 | 1011.5 |
| 20260903152934 | 62 | 243 | 0.0 | 1.0 | 0.00 | 0.00 | 0.00 | 67 | 1011.6 |
| 20260903150741 | 59 | 339 | 0.0 | 0.0 | 0.00 | 0.00 | 0.00 | 73 | 1011.8 |
| 20260903145746 | 58 | 291 | 0.0 | 0.0 | 0.00 | 0.00 | 0.00 | 76 | 1012.0 |
| 20260903144730 | 58 | 16 | 0.0 | 0.0 | 0.00 | 0.00 | 0.00 | 75 | 1012.0 |
| 20260903143741 | 55 | 77 | 0.0 | 0.0 | 0.00 | 0.00 | 0.00 | 81 | 1012.2 |
| 20260903141626 | 52 | 136 | 0.0 | 0.0 | 0.00 | 0.00 | 0.00 | 95 | 1012.3 |
| 20260903140614 | 50 | 136 | 0.0 | 0.0 | 0.00 | 0.00 | 0.00 | 97 | 1012.3 |
| 20260903135617 | 48 | 137 | 0.0 | 0.0 | 0.00 | 0.00 | 0.00 | 97 | 1012.4 |
| 20260903134616 | 46 | 137 | 0.0 | 0.0 | 0.00 | 0.00 | 0.00 | 97 | 1012.5 |
| 20260903132529 | 45 | 137 | 0.0 | 0.0 | 0.00 | 0.00 | 0.00 | 97 | 1012.2 |
| 20260903131455 | 45 | 136 | 0.0 | 0.0 | 0.00 | 0.00 | 0.00 | 97 | 1012.1 |
| 20260903130432 | 45 | 139 | 0.0 | 0.0 | 0.00 | 0.00 | 0.00 | 97 | 1012.0 |
| 20260903125432 | 45 | 161 | 0.0 | 0.0 | 0.00 | 0.00 | 0.00 | 97 | 1011.7 |
| 20260903123321 | 45 | 18 | 0.0 | 0.0 | 0.00 | 0.00 | 0.00 | 96 | 1011.5 |
| 20260903120124 | 45 | 132 | 0.0 | 0.0 | 0.00 | 0.00 | 0.00 | 96 | 1011.1 |
| 20260903112837 | 46 | 122 | 0.0 | 0.0 | 0.00 | 0.00 | 0.00 | 96 | 1010.9 |
| 20260903111850 | 46 | 121 | 0.0 | 0.0 | 0.00 | 0.00 | 0.00 | 96 | 1010.9 |
| 20260903105651 | 47 | 148 | 0.0 | 0.0 | 0.00 | 0.00 | 0.00 | 96 | 1010.8 |
| 20260903104659 | 47 | 148 | 0.0 | 0.0 | 0.00 | 0.00 | 0.00 | 96 | 1010.8 |
| 20260903103631 | 47 | 67 | 0.0 | 0.0 | 0.00 | 0.00 | 0.00 | 96 | 1010.9 |
| 20260903102556 | 47 | 67 | 0.0 | 0.0 | 0.00 | 0.00 | 0.00 | 95 | 1011.0 |
| 20260903101547 | 47 | 67 | 0.0 | 0.0 | 0.00 | 0.00 | 0.00 | 95 | 1011.0 |
| 20260903100559 | 48 | 66 | 0.0 | 0.0 | 0.00 | 0.00 | 0.00 | 95 | 1011.1 |
| 20260903094505 | 48 | 66 | 0.0 | 0.0 | 0.00 | 0.00 | 0.00 | 95 | 1011.0 |
| 20260903091209 | 49 | 36 | 0.0 | 0.0 | 0.00 | 0.00 | 0.00 | 94 | 1010.9 |
| 20260903090210 | 49 | 36 | 0.0 | 0.0 | 0.00 | 0.01 | 0.00 | 94 | 1010.9 |
| 20260903085135 | 50 | 36 | 0.0 | 0.0 | 0.00 | 0.01 | 0.00 | 94 | 1011.1 |
| 20260903084119 | 50 | 335 | 0.0 | 0.0 | 0.00 | 0.01 | 0.00 | 93 | 1011.0 |
| 20260903083058 | 50 | 335 | 0.0 | 0.0 | 0.00 | 0.01 | 0.00 | 93 | 1010.9 |
| 20260903082117 | 51 | 335 | 0.0 | 0.0 | 0.00 | 0.01 | 0.00 | 93 | 1010.9 |